Location: Daiting
(48.7917°N, 10.9039°E)
Time: 14:38:05
(UTC+00:00)

Daily predictions for brighter satellites

Satellite Brightness Start Highest point End
(mag) Time Altitude Azimuth Time Altitude Azimuth Time Altitude Azimuth
ERS-1 Rocket 3.2 19:53:24 10° SSE 19:58:21 61° ENE 20:03:19 10° N
Cosmos 1763 Rocket 3.8 19:53:30 10° NNW 19:58:44 67° WSW 20:03:52 10° S
Cosmos 1553 Rocket 4.1 19:54:24 10° N 20:00:36 87° E 20:06:51 10° S
S3M 4.4 19:56:58 10° N 20:03:13 53° ENE 20:09:22 10° SSE
Spot 2 Rocket 3.8 20:00:50 10° SE 20:05:45 54° ENE 20:10:43 10° N
Meteor 1-15 Rocket 4.5 20:04:49 10° N 20:10:17 55° ENE 20:15:46 10° SSE
Cosmos 1441 Rocket 3.0 20:09:55 10° N 20:13:32 85° E 20:17:09 10° SSE
Okean-O 3.7 20:09:41 10° S 20:13:53 44° W 20:18:08 10° NNW
Cosmos 2360 Rocket 3.1 20:09:45 10° NNW 20:15:06 40° NE 20:20:24 10° ESE
ATLAS 2AS CENTAUR R/B 3.3 20:10:06 10° NW 20:16:50 50° NE 20:23:18 10° ESE
Cosmos 2266 Rocket 4.2 20:12:00 10° S 20:18:09 57° E 20:24:25 10° NNE
Cosmos 1733 Rocket 4.2 20:14:45 10° N 20:18:39 29° ENE 20:22:29 10° SE
Cosmos 1300 3.7 20:16:53 10° N 20:20:04 29° ENE 20:23:03 11° SE
USA 245 3.3 20:19:03 10° SSE 20:22:25 86° W 20:26:45 10° NNW
Cosmos 1674 3.9 20:20:09 10° SSW 20:23:26 39° WNW 20:26:43 10° N
Cosmos 2333 Rocket 3.0 20:18:04 10° NNW 20:23:31 42° NE 20:28:58 10° ESE
SL-16 R/B 2.3 20:18:37 10° NNW 20:24:20 81° ENE 20:29:51 11° SSE
Cosmos 1515 Rocket 4.4 20:20:33 10° SSW 20:24:44 51° WNW 20:29:00 10° N
In-Cosmos 22 4.2 20:19:26 10° S 20:25:02 69° E 20:30:32 10° NNE
Cosmos 1908 3.4 20:22:24 10° NNW 20:25:58 65° W 20:29:32 10° S
Cosmos 1470 3.6 20:22:35 10° NNW 20:26:07 44° W 20:29:39 10° SSW
Atlas Centaur 2 4.3 20:23:47 10° SW 20:29:24 20° S 20:34:35 11° SE
Cosmos 2082 Rocket 3.2 20:23:50 10° SW 20:29:25 53° NW 20:35:00 10° NNE
Ariane Rocket 3.0 20:25:14 10° SSE 20:30:20 82° ENE 20:35:27 10° NNW
Cosmos 2228 Rocket 3.8 20:28:12 10° SSE 20:32:24 38° E 20:36:39 10° NNE
SL-14 R/B 3.9 20:29:37 11° SSE 20:32:54 35° E 20:36:23 10° NNE
Meteor 1-12 Rocket 4.5 20:29:48 10° N 20:35:49 70° ENE 20:41:31 11° SSE
RESURS DK-1 2.4 20:31:50 10° NNW 20:35:55 68° ENE 20:39:23 14° SE
Okean O Rocket 4.2 20:33:46 10° SW 20:36:28 16° W 20:39:08 10° NW
Tiangong 0.1 20:37:12 10° SW 20:38:37 12° SSW 20:39:45 11° S
Cosmos 1869 Rocket 3.9 20:36:25 10° NNW 20:40:51 69° W 20:45:16 10° S
Cosmos 1850 Rocket 4.4 20:36:45 10° S 20:41:42 45° ESE 20:46:39 10° NE
Cosmos 1346 Rocket 3.2 20:39:44 10° N 20:43:31 48° ENE 20:46:26 15° SE
Terra 2.2 20:39:58 10° S 20:44:38 62° W 20:49:19 10° NNW
SPOT 3 Rocket 3.6 20:40:43 10° SSE 20:45:47 82° WSW 20:51:00 10° NNW
USA 281 4.0 20:42:13 10° ESE 20:48:18 43° NE 20:54:27 10° NNW
Timation 1 Rocket 4.4 20:44:22 10° SSW 20:50:14 64° ESE 20:56:08 10° NE
EXPRESS MD2 1.8 20:50:55 10° WSW 20:53:35 78° SSE 20:55:45 10° ENE
Cosmos 2315 Rocket 4.1 20:50:02 10° N 20:56:27 86° E 21:02:15 13° S
Cosmos 1758 3.2 20:54:10 10° N 20:58:05 90° E 21:01:09 16° S
Cosmos 1741 Rocket 4.1 20:55:39 10° S 21:00:50 61° ESE 21:06:04 10° NNE
Landsat 4 4.5 21:00:47 12° S 21:03:47 41° W 21:07:04 10° NNW
Cosmos 968 Rocket 3.8 20:59:28 12° S 21:03:59 48° ESE 21:08:58 10° NNE
Cosmos 2322 Rocket 2.3 21:02:30 10° NNW 21:08:11 76° WSW 21:12:36 17° SSE
Cosmos 1814 Rocket 4.3 21:03:07 10° NNW 21:08:22 61° ENE 21:12:20 18° SE
Cosmos 1356 Rocket 3.4 21:06:07 13° S 21:09:52 81° ESE 21:14:07 10° NNE
SeaSat 1 4.0 21:08:04 10° SSW 21:12:13 27° WSW 21:16:25 10° NW
Cosmos 1862 Rocket 3.5 21:11:25 15° S 21:14:57 74° E 21:19:24 10° NNE
Meteor 1-21 4.3 21:13:03 11° S 21:18:32 81° E 21:24:23 10° NNE
Okean 2 4.0 21:19:14 22° SSE 21:21:18 39° E 21:25:04 10° NNE
USA 234 3.5 21:15:41 10° NE 21:22:14 75° NNW 21:28:45 10° WSW
BREEZE-M DEB (TANK) 4.3 21:01:58 10° WSW 21:23:12 88° S 21:27:59 10° E
Cosmos 1400 Rocket 4.2 21:23:14 10° SW 21:26:50 36° WNW 21:30:26 10° N
Cosmos 1455 2.6 21:24:37 10° N 21:27:59 42° ENE 21:29:35 25° SE
COSMOS 2428 3.7 21:23:45 10° NNW 21:29:03 38° NE 21:33:46 13° ESE
SL-4 R/B 2.6 21:25:12 10° WNW 21:29:04 56° N 21:33:11 10° E
COSMOS 2455 4.5 21:29:11 14° ESE 21:30:53 16° ESE 21:34:21 10° ENE
Landsat 5 3.9 21:30:19 10° N 21:34:14 60° WNW 21:38:06 11° SSW
Cosmos 2219 Rocket 2.3 21:29:53 10° NNW 21:35:36 77° ENE 21:39:27 21° SE
Cosmos 1707 Rocket 4.1 21:31:38 11° SSW 21:35:48 58° WNW 21:40:13 10° N
ATLAS CENTAUR R/B 0.9 21:35:40 10° SW 21:39:09 85° NW 21:42:47 10° NE
ARIANE 5 R/B 2.6 21:39:26 25° SSE 21:41:53 69° ENE 21:46:12 10° N
Cosmos 1315 Rocket 2.8 21:39:54 26° S 21:42:01 66° E 21:46:00 10° NNE
SJ 16-02 1.2 21:39:28 19° SSW 21:42:31 78° ESE 21:46:52 10° NNE
Kosmos-1783 4.5 21:39:06 10° NW 21:42:41 75° NE 21:48:19 16° SE
Meteor 1-4 Rocket 2.0 21:41:42 31° SSW 21:42:58 84° W 21:45:59 10° N
SL-27 R/B 2.7 21:41:51 17° SW 21:43:45 47° WNW 21:46:29 10° N
Okean 3 3.7 21:41:42 17° SSW 21:44:46 67° WNW 21:48:56 10° N
Cosmos 1953 2.1 21:41:52 10° N 21:45:43 81° E 21:47:31 30° SSE
Cosmos 1241 Rocket 4.4 21:42:42 12° SSW 21:48:27 63° ESE 21:54:37 10° NE
Aureole 3 4.0 21:49:38 17° SSW 21:52:30 56° WNW 21:57:12 10° N
Cosmos 1733 Rocket 4.5 21:52:28 10° NNW 21:56:21 31° W 21:59:30 14° SSW
Nadezhda 1 Rocket 4.1 21:51:20 10° N 21:57:39 66° ENE 22:01:33 24° SSE
Cosmos 2360 Rocket 3.0 21:53:50 10° NW 21:59:07 41° WSW 22:02:32 20° SSW
H-2A R/B 2.7 21:59:14 28° SE 22:01:23 63° ENE 22:05:37 10° N
GP-B 3.0 21:57:46 10° N 22:02:12 84° E 22:04:27 29° S
Cosmos 839 Rocket 4.2 21:56:07 10° NW 22:02:59 64° WSW 22:06:44 25° SSE
SL-16 R/B 4.2 22:04:00 10° WNW 22:07:43 18° W 22:11:26 10° SW
ATLAS 2AS CENTAUR R/B 3.1 22:01:16 10° NW 22:07:44 47° WSW 22:11:32 23° S
Cosmos 2333 Rocket 3.1 22:02:29 10° NW 22:07:47 39° WSW 22:11:07 20° SSW
Cosmos 1908 Rocket 3.7 22:04:38 10° NNW 22:08:58 66° W 22:11:05 29° S
Cosmos 1782 Rocket 3.6 22:07:14 10° N 22:11:34 70° ENE 22:13:29 32° SSE
BREEZE-M DEB (TANK) 3.5 22:10:54 10° W 22:13:54 82° N 22:22:31 10° E
Okean 1-7 3.6 22:13:22 20° SSW 22:16:12 52° WNW 22:20:26 10° N
Atlas Centaur 2 4.5 22:12:59 10° SW 22:16:47 15° SSW 22:16:47 15° SSW
Cosmos 1408 2.5 22:22:39 44° ESE 22:22:53 45° E 22:25:47 10° NNE
Cosmos 1242 Rocket 2.2 22:23:20 48° SW 22:23:49 59° WNW 22:26:34 10° N
BlueWalker 3 2.7 22:24:27 31° ESE 22:24:27 31° ESE 22:27:19 10° ENE
BREEZE-M DEB (TANK) 3.2 22:20:13 10° WNW 22:24:01 37° N 22:26:03 10° ENE
MINOTAUR 4 R/B 4.1 22:22:29 10° N 22:25:20 52° WNW 22:26:10 36° SW
Cosmos 405 Rocket 4.3 22:25:08 10° NNE 22:28:20 26° ENE 22:29:56 19° ESE
Spot 2 4.5 22:28:05 29° SSE 22:30:42 78° ENE 22:35:48 10° NNW
Cosmos 1570 Rocket 4.1 22:26:30 10° NNW 22:31:50 68° WSW 22:34:28 30° S
Cosmos 1300 Rocket 3.4 22:27:52 10° N 22:32:12 87° WSW 22:33:55 36° S
USA 281 3.7 22:28:55 24° S 22:32:45 49° WSW 22:39:06 10° NW
Meteor 1-24 Rocket 4.4 22:30:01 26° SSE 22:32:51 43° E 22:38:10 10° NNE
Cosmos 2237 Rocket 3.0 22:27:27 10° NNW 22:32:56 46° NE 22:37:15 16° ESE
Cosmos 1238 4.5 22:30:06 10° NNW 22:33:13 66° W 22:34:07 43° SSW
Cosmos 2322 3.8 22:27:35 10° NNW 22:33:15 69° WSW 22:36:10 29° S
H-2A R/B 3.5 22:30:46 10° NE 22:34:13 23° E 22:35:22 21° ESE
ALOS 2 2.6 22:32:43 34° SSE 22:34:36 81° ENE 22:39:02 10° NNW
Cosmos 371 Rocket 3.8 22:38:27 32° SSE 22:40:08 44° ESE 22:44:43 10° NE
Cosmos 2227 Rocket 3.8 22:38:36 16° ESE 22:40:28 19° E 22:44:16 10° ENE
CZ-3 Stage 3 4.5 22:16:39 10° W 22:40:46 30° SW 22:45:18 23° S
CZ-4C R/B 2.4 22:42:23 31° SSE 22:43:35 37° ESE 22:48:33 10° NE
BREEZE-M DEB (TANK) 3.2 22:45:04 45° SE 22:45:04 45° SE 22:49:30 10° ENE
Cosmos 1703 3.3 22:44:41 42° SE 22:45:34 55° E 22:49:11 10° NNE
Cosmos 1980 4.1 22:40:16 10° NNW 22:45:53 59° ENE 22:49:45 20° SE
Cosmos 1709 Rocket 4.0 22:45:06 27° S 22:48:50 85° E 22:55:14 10° N
Cosmos 2322 Rocket 4.4 22:48:50 10° WNW 22:51:14 13° W 22:53:38 10° WSW
Spot 4 4.2 22:49:10 30° SSW 22:51:16 53° W 22:55:59 10° NNW
NOSS 0 Rocket 3.9 22:48:53 10° NNW 22:55:09 82° WSW 22:58:44 27° SSE
Cosmos 158 Rocket 4.2 22:50:41 10° NNW 22:55:56 60° WSW 22:58:13 32° S
Sich 1 Rocket 4.3 22:55:06 10° N 22:59:19 44° ENE 23:01:19 26° SE
Cosmos 2242 Rocket 3.7 22:57:30 33° SSW 22:59:30 75° WNW 23:04:06 10° N
Cosmos 2297 Rocket 2.6 22:57:55 30° SSE 23:00:17 47° ESE 23:05:41 10° NE
Meteor 2-5 Rocket 3.9 22:57:47 30° S 23:00:51 71° E 23:06:41 10° NNE
EXPRESS MD2 4.2 22:58:50 10° WNW 22:59:34 18° WNW 22:59:34 18° WNW
Cosmos 1455 4.3 23:00:08 10° NW 23:02:02 14° W 23:03:18 12° WSW
Cosmos 2208 Rocket 4.4 22:58:48 10° NNW 23:03:48 48° WSW 23:05:55 30° SSW
GEOS 3 Rocket 4.2 22:59:44 10° NE 23:04:34 40° ESE 23:06:13 31° SSE
USA 234 4.4 22:58:39 10° ENE 23:04:49 46° N 23:10:58 10° WNW
Cosmos 1892 3.6 23:06:43 29° ESE 23:07:23 31° E 23:10:33 10° NNE
SL-4 R/B 1.9 23:03:59 10° WNW 23:08:04 88° SSW 23:12:04 12° ESE
Cosmos 773 Rocket 3.9 23:02:54 10° NNW 23:08:04 84° WSW 23:10:31 32° SSE
COSMOS 2428 3.3 23:08:02 10° NW 23:13:22 43° WSW 23:15:45 28° SSW
CENTAUR R/B 3.6 23:12:45 21° SE 23:14:44 25° ESE 23:20:02 10° ENE
Cosmos 2098 Rocket 4.1 23:08:12 10° N 23:14:50 84° W 23:18:28 29° S
COSMOS 2455 2.8 23:12:16 26° SSW 23:15:53 82° ESE 23:21:57 10° NE
NOSS 8 (H) 4.2 23:15:28 47° SW 23:16:23 85° SE 23:19:26 10° NE
ATLAS CENTAUR R/B 4.0 23:15:08 10° WNW 23:17:23 16° NNW 23:19:42 10° N
Cosmos 1503 Rocket 4.0 23:15:43 32° S 23:18:12 73° ESE 23:23:31 10° NNE
Cosmos 2219 Rocket 3.9 23:14:58 10° NW 23:18:53 19° W 23:21:08 15° SW
Cosmos 1777 Rocket 4.1 23:18:39 33° S 23:20:59 65° ESE 23:26:14 10° NNE
SJ 16-02 3.9 23:18:52 10° W 23:21:27 15° NW 23:24:03 10° NNW
PSLV R/B 3.7 23:27:10 10° N 23:31:22 63° WNW 23:33:06 33° SW
Cosmos 332 Rocket 4.2 23:31:18 32° SSE 23:33:12 51° ESE 23:37:57 10° NNE
Cosmos 304 Rocket 3.8 23:31:07 31° SSW 23:33:24 76° WNW 23:38:12 10° NNE
Cosmos 2263 Rocket 3.9 23:33:49 15° SE 23:36:20 20° E 23:40:16 10° NE
Cosmos 1174 4.0 23:32:39 10° NW 23:37:47 87° NE 23:39:54 29° SE
Okean 1 Rocket 3.1 23:36:52 10° N 23:41:13 75° E 23:43:05 34° SSE
Resurs 1-4 Rocket 4.5 23:41:27 10° ENE 23:43:11 11° E 23:44:55 10° ESE
Cosmos 2181 Rocket 4.2 23:40:12 10° NNW 23:46:18 60° W 23:49:34 28° SSW
Cosmos 1825 1.8 23:47:12 52° S 23:47:58 89° WNW 23:51:24 10° N
Helios 1A Rocket 4.0 23:46:37 18° SE 23:48:55 35° ENE 23:52:24 10° N
